Home > Weather > Orléans > Past weeks

Flag for France Weather for the Past 2 Weeks in Orléans, Centre-Val de Loire, France

Now
57 °F

Sunny.


Feels Like: 55 °F
Forecast: 36 / 62 °F
Wind: 10 mph from North

Location: Orleans Airport

Current Time: May 1, 2016 at 8:31:28 PM

Latest Report: May 1, 2016 at 8:00 PM


Visibility: 10 mi

Pressure: 30.33 "Hg

Humidity: 48%

Dew Point: 37 °F

Location of OrléansLocation

Historic Weather in Orléans — Graph

°F

Orléans Temperature Yesterday

Maximum temperature yesterday: 50 °F (at 7:30 PM)
Minimum temperature yesterday: 41 °F (at 10:30 PM)
Average temperature yesterday: 45 °F

High & Low Weather Summary for the Past Weeks

 TemperatureHumidityPressure
High68 °F (Apr 21, 4:00 PM)100% (Apr 18, 6:00 AM)30.36 "Hg (Apr 18, 6:00 AM)
Low30 °F (Apr 18, 7:00 AM)38% (Apr 18, 4:00 PM)29.65 "Hg (Apr 16, 7:00 PM)
Average48 °F74%30.05 "Hg
* Reported Apr 16 7:00 PM — May 1 7:00 PM, Orléans, Weather by CustomWeather, © 2016

Note: Actual official high and low records may vary slightly from our data, if they occured in-between our weather recording intervals... More about our weather records

Advertising

Orléans Weather History for the Previous 24 Hours

Scroll right to see more
 ConditionsComfort  
Time TempWeatherWind HumidityBarometerVisibility
7:00 PM
Sun, May 1
59 °FSunny.13 mph39%30.33 "Hg10 mi
6:30 PM59 °FPassing clouds.15 mph39%30.33 "HgN/A
6:00 PM59 °FSunny.13 mph45%30.33 "Hg10 mi
5:30 PM59 °FSunny.14 mph42%30.33 "Hg10 mi
5:00 PM59 °FSunny.14 mph45%30.33 "Hg10 mi
4:30 PM59 °FSunny.18 mph42%30.33 "Hg10 mi
4:00 PM57 °FSunny.15 mph44%30.33 "Hg10 mi
3:30 PM57 °FPassing clouds.16 mph44%30.33 "HgN/A
3:00 PM57 °FPassing clouds.17 mph48%30.33 "HgN/A
2:30 PM55 °FPassing clouds.16 mph47%30.33 "HgN/A
2:00 PM55 °FPassing clouds.16 mph51%30.33 "HgN/A
1:30 PM55 °FPassing clouds.15 mph51%30.33 "HgN/A
1:00 PM54 °FPassing clouds.16 mph54%30.36 "HgN/A
12:30 PM54 °FPassing clouds.17 mph58%30.36 "HgN/A
12:00 PM52 °FPassing clouds.14 mph58%30.36 "HgN/A
11:30 AM50 °FSunny.14 mph67%30.36 "Hg10 mi
11:00 AM48 °FSunny.15 mph66%30.36 "Hg10 mi
10:30 AM48 °FSunny.14 mph71%30.36 "Hg10 mi
10:00 AM46 °FSunny.13 mph76%30.36 "Hg10 mi
9:00 AM43 °FSunny.13 mph93%30.36 "Hg10 mi
8:30 AM41 °FSunny.9 mph93%30.36 "Hg10 mi
8:00 AM37 °FSunny.8 mph93%30.33 "Hg10 mi
7:30 AM34 °FClear.6 mph100%30.33 "Hg10 mi
6:30 AM34 °FClear.6 mph93%30.33 "Hg10 mi
6:00 AM34 °FClear.6 mph93%30.30 "Hg10 mi
5:00 AM36 °FClear.9 mph93%30.30 "Hg10 mi
4:30 AM37 °FClear.8 mph93%30.30 "Hg10 mi
4:00 AM36 °FClear.8 mph93%30.30 "Hg10 mi
3:30 AM36 °FClear.9 mph93%30.30 "Hg10 mi
3:00 AM36 °FClear.8 mph93%30.30 "Hg10 mi
2:30 AM37 °FClear.8 mph87%30.30 "Hg10 mi
2:00 AM37 °FClear.8 mph87%30.30 "Hg10 mi
1:30 AM37 °FClear.8 mph93%30.30 "Hg10 mi
1:00 AM37 °FClear.8 mph87%30.30 "Hg10 mi
12:30 AM39 °FClear.12 mph87%30.27 "Hg10 mi
12:00 AM39 °FClear.12 mph87%30.27 "Hg10 mi
11:30 PM
Sat, Apr 30
41 °FClear.13 mph81%30.27 "Hg10 mi
11:00 PM41 °FPartly cloudy.8 mph87%30.27 "HgN/A
10:30 PM41 °FClear.8 mph87%30.24 "Hg10 mi
10:00 PM45 °FSunny.8 mph71%30.24 "Hg10 mi
9:30 PM45 °FLight rain. Partly sunny.18 mph76%30.24 "HgN/A
9:00 PM46 °FBroken clouds.5 mph82%30.21 "HgN/A
8:30 PM46 °FSunny.7 mph76%30.18 "Hg10 mi
8:00 PM48 °FSunny.9 mph71%30.18 "Hg10 mi
Weather by CustomWeather, © 2016

See weather overviewHow to use our weather pages